Location: ???? ????
(41.4149°N, 22.8816°E)
Time: 13:47:45
(UTC+00:00)

SL-16 R/B - Pass Details

Date: 14 July 2020
Orbit: 842 x 846 km, 71.0° (Epoch: 04 August)

Event Time Altitude Azimuth Distance (km) Brightness Sun altitude
Rises 02:05:20 0° 338° (NNW) 3,415 5.6 -10.3°
Reaches altitude 10° 02:07:49 10° 341° (NNW) 2,476 4.9 -9.9°
Maximum altitude 02:13:29 68° 64° (ENE) 912 2.7 -9.1°
Drops below altitude 10° 02:19:06 10° 147° (SSE) 2,459 4.6 -8.3°
Sets 02:21:33 0° 150° (SSE) 3,390 5.3 -7.9°
